Flag for U.S.A. Weather past 2 weeks in Columbus, Georgia, U.S.A.

Now
86 °F

Partly sunny.


Feels Like: 87 °F
Forecast: 65 / 86 °F
Wind: 3 mph from Northeast

Location: Columbus Metropolitan Airport

Current Time: Jul 31, 2014 at 6:06:08 PM

Latest Report: Jul 31, 2014 at 4:51 PM


Visibility: 10 mi

Pressure: 29.98 "Hg

Humidity: 45%

Dew point: 62 °F

Location of ColumbusLocation

Historic Weather in Columbus — Graph

°F

Columbus temperature yesterday

Maximum temperature yesterday: 85 °F (at 4:51 PM)
Minimum temperature yesterday: 63 °F (at 6:51 AM)
Average temperature yesterday: 75 °F

Past Weeks' High & Low Weather Summary

 TemperatureHumidityPressure
High94 °F (Jul 27, 3:51 PM)100% (Jul 19, 5:00 AM)30.13 "Hg (Jul 19, 5:00 AM)
Low63 °F (Jul 30, 6:51 AM)29% (Jul 17, 5:51 PM)29.85 "Hg (Jul 28, 4:51 PM)
Average78 °F71%29.99 "Hg
* Reported Jul 16 4:51 PM — Jul 31 4:51 PM, Columbus, Weather by CustomWeather, © 2014

Note: Actual official high and low records may vary slightly from our data, if they occured in-between our weather recording intervals... More about our weather records

Advertising

Columbus weather history for previous 24 hours

 ConditionsComfort  
Time TempWeatherWind HumidityBarometerVisibility
4:51 PM
Jul 31
86 °FPartly sunny.3 mph45%29.98 "Hg10 mi
3:51 PM87 °FPartly sunny.5 mph45%29.98 "Hg10 mi
2:51 PM85 °FScattered clouds.5 mph50%30.00 "Hg10 mi
1:51 PM86 °FBroken clouds.5 mph49%30.00 "Hg10 mi
12:51 PM84 °FPartly sunny.No wind51%30.01 "Hg10 mi
11:51 AM83 °FSunny.No wind51%30.02 "Hg10 mi
10:51 AM82 °FSunny.No wind56%30.02 "Hg10 mi
9:51 AM76 °FSunny.3 mph67%30.02 "Hg10 mi
8:51 AM72 °FSunny.No wind71%30.01 "Hg10 mi
7:51 AM70 °FClear.No wind73%30.00 "Hg10 mi
6:51 AM69 °FClear.3 mph76%30.01 "Hg10 mi
5:51 AM69 °FClear.No wind73%29.99 "Hg10 mi
4:51 AM69 °FClear.No wind73%29.98 "Hg10 mi
3:51 AM69 °FClear.No wind76%29.98 "Hg10 mi
2:51 AM69 °FClear.No wind79%29.98 "Hg10 mi
1:51 AM71 °FClear.No wind73%29.99 "Hg10 mi
12:51 AM72 °FClear.No wind73%30.01 "Hg10 mi
11:51 PM
Jul 30
72 °FClear.No wind71%30.01 "Hg10 mi
10:51 PM77 °FClear.3 mph56%30.00 "Hg10 mi
9:51 PM80 °FClear.6 mph49%29.99 "Hg10 mi
8:51 PM81 °FPassing clouds.7 mph47%29.98 "Hg10 mi
7:51 PM84 °FSunny.8 mph41%29.98 "Hg10 mi
6:51 PM85 °FSunny.No wind37%29.98 "Hg10 mi
Weather by CustomWeather, © 2014

See weather overviewHow to use our weather pages